Weather in Tiris-Usmanovo

Russia / Orenburg Oblast     53°43′22″N   53°20′17″E
temp.,
°C
wind,
m/s
gust,
m/s
humid.,
%
clouds,
%
prec.,
mm/h
press.,
hPa
HPBL,
m
24 july, sat
sat2423:00+19n1163100 0.0 100411
02:00+15se007734 0.0 100511
05:00+17wnw1169100 0.0 100513
08:00+19nw24531 0.0 1006237
11:00+23wnw44370 0.0 10061864
14:00+25wnw553099 0.0 10062820
17:00+24wnw773897 0.0 10072056
20:00+20nnw364746 0.0 1009210
25 july, sun
sun2523:00+17nnw355931 0.0 1011125
02:00+15nnw377526 0.0 1013213
05:00+11n33910 0.0 101545
08:00+14n48630 0.0 1017407
11:00+19n56330 0.0 10181719
14:00+22nnw55261 0.0 10182209
17:00+23nnw55255 0.0 10182523
20:00+20nnw47325 0.0 1019356
26 july, mon
mon2623:00+13n33442 0.0 102124
02:00+11nne23550 0.0 102319
05:00+10nne22610 0.0 102415
08:00+15nne12475 0.0 1024151
11:00+20nnw153260 0.0 10242405
14:00+22nw552982 0.0 10232727
17:00+23n352840 0.0 10222701
20:00+21n233859 0.0 1022105
27 july, tue
tue2723:00+15nw115015 0.0 102210
02:00+13nw115661 0.0 102210
05:00+13wsw22585 0.0 102111
08:00+17w464920 0.0 1021236
11:00+22wnw56365 0.0 10201868
14:00+24nw6631100 0.0 10192477
17:00+23nnw573638 0.0 10181376
20:00+21nw35486 0.1 1017203
28 july, wed
wed2823:00+16nnw11658 0.1 101811
02:00+15w116611 0.0 101811
05:00+14w116783 0.0 101811
08:00+18nnw11565 0.0 1018185
11:00+23nw23444 0.0 10171333
14:00+26nw453375 0.0 10152844
17:00+27nnw452751 0.0 10142825
20:00+24n353265 0.0 1014164